CZ-6A DEB, 61804

Orbit data source: Space-Track

CZ-6A DEB, 61804 is space debris in LEO originally from a launch on Tue, 06 Aug 2024 UTC launched from the Taiyaun Space Center, China (TSC). Debris objects in space refer to the collection of defunct objects orbiting the Earth. Examples of debris include non-operational satellites, rocket bodies, and fragments generated from explosions, collisions, or faulty payload assembly.

Loading next visibility...
Identifier
61804, 2024-140ABU
Orbit
LEO
Country
Flag of CNCN / PRC
Related business
Manufacturer
SAST
Mission
Spacecraft
Bus & Motor
Unknown
Mass
Unknown
Launch date (UTC)
2024-08-06 (1 year ago)
Launch vehicle
Unknown
Launch site
Taiyaun Space Center, China (TSC)
Object type
Payload
Rocket body
Debris
Shape & HBR
Unknown shape, 0.1 m
Radar Cross Section
Small (<0.1 m²)

Expand to show TLE details & history
Last TLE update: 17 hours ago

TLE from 17 hours ago
0 CZ-6A DEB
1 61804U 24140ABU 25350.29466653  .00008946  00000-0  37361-2 0  9995
2 61804  89.0917 300.7733 0075249  53.0320 307.7731 14.24562238 65543
Epoch: 2025-12-16T07:04Z
TLE epoch observation values (Epoch: 2025-12-16T07:04:19.188Z)
Latitude
0.00003°
Longitude
109.51241°
Altitude
780.142 km
Speed
7.481 km/s
True Right ascension
20h 03m 05s
True Declination
0° 00' 00"
Sunlit
Object was in daylight at epoch
Visualization orbit readout
Latitude
Unknown
Longitude
Unknown
Altitude
Unknown
Speed
Unknown
Apparent Right ascension
Unknown
Apparent Declination
Unknown
Sunlit
N/A
Visualization observer readout
Local Sidereal Time
22:55:08
Azimuth
Unknown
Elevation
Unknown
Doppler factor
Unknown
Orbital elements
Apogee altitude
860.976 km
Perigee altitude
752.842 km
Semi-major axis
7,185.046 km
Eccentricity
0.00752
Inclination
89.0917°
RAAN
300.7733°
Arg. of periapsis
53.032°
True anomaly
307.08758°
Mean anomaly
307.7731°
Eccentric anomaly
307.43073°
Mean motion
3.56368 °/min
Orbital period
101.02 mins
BSTAR
0.0037361
Loading maneuver chart data...
Computing Atmospheric mass density...
Loading historical data...
Loading historical data...
Loading historical data...
Loading historical data...
Loading historical data...
Loading historical data...
Loading historical data...

Documentation

Showing up to 5 results
|